COSMOS 971

导读

COSMOS 971(宇宙971)是前苏联(独立国家联合体CIS)于1977年12月23日08时发射的军用卫星,隶属于苏联"宇宙"系列卫星。作为冷战时期太空军事项目产物,延续了该系列卫星的保密特性,具体任务以军事侦察为主,运行在近地轨道,是苏联军事航天体系中获取空间情报的重要组成部分,标志着当时苏联在军事航天领域的持续推进。

基本信息
目录编号:
10536
目录名称:
COSMOS 971
国际标识:
1977-122A
轨道中心:
EARTH
卫星名称:
COSMOS 971
卫星全名:
--
卫星状态:
在轨 (已飞行17797 天)
发射日期:
1977-12-23 UTC
国别 :
俄罗斯(独联体) (CIS)
星等 :
--
该卫星已列入 空间交会检测服务 Space Conjunction Data Service (SCDS) ,当前飞行风险评估等级: 无高风险
轨道信息
数据来源 国际轨道数据 AOE轨道数据
星历时间 2026-09-13T16:38:41+0800
23小时前
查看轨道信息
2026-09-13T01:00:00+0800
1天前
查看轨道信息
半长轴 7365.405km 7365.408km
偏心率 0.0021991 0.002182
轨道倾角 82.939° 82.941°
近地点辐角 134.299° 135.940°
升交点赤经 181.151° 181.633°
平近点角 349.205° 6.325°
近地点 971.07km 971.199km
远地点 1003.466km 1003.343km
周期 104.847分钟 104.847分钟
每日圈数 13.734342 13.734334
详细信息
使用方式:
暂无
2D轨道图
3D轨道图
轨道高度分析图
轨道倾角分析图
轨道综合分析图
查看轨道综合分析图
交会数据列表
事件ID 空间交会对象 最接近时刻(TCA) 交会距离 交会风险概率(CRP) 交会风险指数(CRI) 操作
CDM_260916-043801-053603-017523
2026-09-16T
04:38:30+0000
1.525 km
极远距离
6.074813E-6 低风险 0.51
CDM_260911-030901-053601-985323
2026-09-11T
03:09:31+0000
2.275 km
极远距离
7.415425E-7 极低风险 0.32
与全量物体交会距离演化趋势 订阅飞行安全评估服务
与全量物体交会风险概率演化趋势 订阅飞行安全评估服务